Location: Béaulencourt
(50.0796°N, 2.8795°E)
Time: 21:21:01
(UTC+00:00)

COSMO-SKYMED 1 - Pass Details

Date: 20 January 2026
Orbit: 577 x 579 km, 97.9° (Epoch: 16 February)

Event Time Altitude Azimuth Distance (km) Brightness Sun altitude
Rises 04:31:02 0° 143° (SE) 2,790 6.3 -29.4°
Reaches altitude 10° 04:33:17 10° 135° (SE) 1,895 5.5 -29.0°
Maximum altitude 04:37:05 37° 68° (ENE) 910 3.8 -28.4°
Enters shadow 04:37:44 35° 46° (NE) 954 3.8 -28.3°
